[[{"header":{"parameterUnit":"m.s-1","parameterCategory":1,"la1":30.2991,"la2":30.254,"lo1":-89.0895,"lo2":-89.0444,"dy":0.0017,"dx":0.0017,"nx":28,"ny":28,"refTime":"2023-08-25T03:00:00:Z","depth":0,"parameterNumber":2,"parameterNumberName":"U-component_of_WINDS"},"data":[0,0,0,0,0,0,0,0,0,0,0,0,0,0,0,0,0,0,0,0,0,0,0,0,0,0,0,0,0,0,0,0,0,0,0,0,0,0,0,0,0,0,0,0,0,0,0,0,0,0,0,0,0,0,0,0,0,0,0.5855,0.5857,0,0.6069,0.6072,0.6074,0.6063,0.606,0.6057,0.6054,0.628,0.6288,0.6297,0,0,0,0,0,0,0,0,0,0,0,0,0,0.5441,0.5448,0.5855,0.5857,0.586,0.6069,0.6072,0.6075,0.6063,0.606,0.6056,0.6052,0.6277,0.6287,0.6298,0,0,0,0,0,0,0,0,0,0,0,0,0,0.5634,0.5451,0.5854,0.5879,0.5884,0.6068,0.6072,0.6076,0.6064,0.606,0.6055,0.6051,0.6273,0.6286,0.6299,0.6475,0,0,0.634,0.6346,0,0,0,0,0,0,0,0,0.5623,0.565,0.5873,0.5878,0.5883,0.6034,0.6009,0.621,0.6065,0.5996,0.6054,0.6048,0.6202,0.6221,0.6272,0.6485,0.6495,0.6341,0.6349,0.6355,0.6359,0,0,0,0,0,0,0,0.561,0.564,0.594,0.5876,0.5883,0.5882,0.5904,0.6047,0.6123,0.6002,0.6001,0.6026,0.6204,0.6259,0.6277,0.6499,0.6341,0.6353,0.6361,0.6366,0.6869,0.6874,0,0,0,0,0,0,0.559,0.5629,0.5933,0.5946,0.5739,0.5893,0.5918,0.5991,0.6121,0.6136,0.603,0.6025,0.6238,0.6261,0.6285,0.65,0.6355,0.6368,0.6375,0.6863,0.687,0.6875,0,0,0,0,0,0,0.5581,0.5617,0.5924,0.5788,0.5827,0.5905,0.5987,0.5997,0.6052,0.6143,0.6157,0.6072,0.6236,0.6266,0.6428,0.6508,0.6374,0.6386,0.6857,0.6865,0.6873,0.6931,0,0,0,0,0,0,0.557,0.5614,0.5681,0.5789,0.5834,0.6062,0.5992,0.6005,0.6075,0.607,0.6186,0.62,0.6234,0.6408,0.6441,0.6524,0.6396,0.685,0.6861,0.687,0.6923,0.694,0.6956,0,0,0,0,0,0.5555,0.569,0.5684,0.5721,0.5918,0.6067,0.6092,0.6127,0.6081,0.6149,0.6207,0.6197,0.6493,0.6424,0.6462,0.655,0.6845,0.6858,0.6869,0.6915,0.6937,0.6955,0,0,0,0,0,0,0.559,0.5704,0.5699,0.5873,0.596,0.6064,0.6151,0.6149,0.6252,0.6244,0.6284,0.6311,0.6473,0.6527,0.6449,0.6727,0.6664,0.6684,0.6686,0.6707,0.6723,0.6708,0.6407,0,0,0,0,0,0.5618,0.5727,0.5821,0.5966,0.6009,0.6073,0.6139,0.6158,0.625,0.6288,0.6358,0.645,0.6564,0.6638,0.6748,0.693,0.6956,0.7009,0.7025,0.7038,0.7056,0.7157,0.7182,0.6915,0.6915,0.6915,0,0,0.5677,0.5753,0.582,0.5975,0.6044,0.6159,0.6104,0.6227,0.6313,0.6307,0.6464,0.6518,0.6624,0.6796,0.6876,0.6847,0.7135,0.7054,0.7063,0.7074,0.7172,0.7198,0.722,0.6923,0.6921,0.692,0,0,0.5843,0.5911,0.6039,0.6109,0.6215,0.6256,0.6286,0.6392,0.6427,0.6584,0.6583,0.6686,0.6881,0.6957,0.702,0.7215,0.721,0.725,0.7336,0.7435,0.7456,0.7475,0.7546,0.757,0.7266,0.7266,0.7267,0,0.5904,0.6074,0.6105,0.6229,0.6298,0.6296,0.6427,0.6495,0.6632,0.668,0.6645,0.689,0.6961,0.7151,0.7199,0.725,0.7288,0.7237,0.745,0.7469,0.7487,0.7555,0.7582,0.7271,0.727,0.727,0.7269,0,0.6144,0.6262,0.6353,0.6483,0.6562,0.6689,0.6742,0.6818,0.683,0.6876,0.7037,0.7122,0.7249,0.7295,0.7309,0.7489,0.7467,0.7441,0.7378,0.7517,0.7581,0.7608,0.7277,0.7275,0.7274,0.7273,0,0,0.634,0.6485,0.6518,0.6577,0.6693,0.6786,0.6914,0.7036,0.7102,0.7196,0.7306,0.747,0.7446,0.7519,0.7541,0.7627,0.7777,0.759,0.7593,0.7623,0.7982,0.8003,0.8032,0.7773,0.7779,0.7783,0.7974,0,0.6519,0.6743,0.6775,0.6973,0.7084,0.7083,0.7194,0.7279,0.7325,0.7427,0.7478,0.7595,0.7553,0.7597,0.7682,0.7741,0.785,0.7727,0.7878,0.7883,0.7852,0.8066,0.8088,0.8264,0.7999,0.8004,0.8007,0,0.6758,0.6857,0.7066,0.7167,0.7215,0.7314,0.7429,0.7526,0.7622,0.765,0.773,0.7742,0.7876,0.7806,0.7992,0.7907,0.7971,0.8009,0.8017,0.8033,0.7954,0.809,0.8321,0.8348,0.8047,0.8043,0.8041,0,0.6882,0.7067,0.7217,0.7267,0.7389,0.7459,0.7513,0.7604,0.7676,0.7777,0.7825,0.7941,0.8005,0.8095,0.8139,0.8083,0.8323,0.8256,0.8351,0.835,0.8403,0.8399,0.8649,0.8441,0.8441,0.844,0.844,0,0.7079,0.7207,0.7274,0.7366,0.751,0.7546,0.7689,0.7741,0.7822,0.7926,0.7933,0.803,0.808,0.8186,0.8221,0.8371,0.8399,0.8427,0.8435,0.8427,0.8424,0.847,0.846,0.8447,0.8446,0.8444,0.8443,0,0.7242,0.7291,0.7454,0.7555,0.7584,0.7686,0.7774,0.7864,0.7908,0.804,0.8073,0.8144,0.8268,0.832,0.8473,0.8497,0.8669,0.8667,0.8636,0.8639,0.8731,0.8723,0.9021,0.9063,0.8826,0.8828,0.883,0,0.7365,0.7464,0.7575,0.7644,0.77,0.7811,0.7884,0.7924,0.8,0.8117,0.8194,0.8317,0.8419,0.8618,0.8685,0.8803,0.8805,0.8901,0.8823,0.8812,0.8808,0.8802,0.8813,0.8916,0.8918,0.892,0.8922,0,0.758,0.7599,0.7703,0.7816,0.7902,0.7993,0.8082,0.8139,0.8193,0.8278,0.8404,0.8483,0.8639,0.8763,0.8884,0.8942,0.8942,0.8946,0.8974,0.8968,0.8947,0.8961,0.8677,0.8939,0.8938,0.8936,0.8935,0.8935,0.7728,0.7816,0.7908,0.8023,0.8094,0.8177,0.8267,0.8322,0.8428,0.8557,0.8574,0.871,0.8805,0.8967,0.903,0.9138,0.9114,0.9155,0.9165,0.9175,0.9182,0.8928,0.916,0.916,0.9159,0.9159,0.9159,0,0.7944,0.8002,0.8108,0.8232,0.8323,0.8313,0.8411,0.8489,0.8608,0.8695,0.8794,0.894,0.906,0.9136,0.9257,0.9329,0.9333,0.936,0.9356,0.937,0.9196,0.916,0.9355,0.9355,0.9355,0.9355,0.9355,0.9355,0.8067,0.8215,0.8245,0.8429,0.8488,0.8619,0.8676,0.8754,0.8824,0.8986,0.9085,0.9132,0.9216,0.9343,0.9454,0.9473,0.9518,0.9547,0.9565,0.9402,0.9382,0.9362,0.9328,0.9556,0.9557,0.973,0.9732,0.9733]},{"header":{"parameterUnit":"m.s-1","parameterCategory":1,"la1":30.2991,"la2":30.254,"lo1":-89.0895,"lo2":-89.0444,"dy":0.0017,"dx":0.0017,"nx":28,"ny":28,"refTime":"2023-08-25T03:00:00:Z","depth":0,"parameterNumber":3,"parameterNumberName":"V-component_of_WINDS"},"data":[0,0,0,0,0,0,0,0,0,0,0,0,0,0,0,0,0,0,0,0,0,0,0,0,0,0,0,0,0,0,0,0,0,0,0,0,0,0,0,0,0,0,0,0,0,0,0,0,0,0,0,0,0,0,0,0,0,0,1.0008,1.0009,0,1.006,1.0061,1.0062,0.9939,0.9935,0.9931,0.9928,0.9985,0.999,0.9995,0,0,0,0,0,0,0,0,0,0,0,0,0,0.9804,0.9808,1.0008,1.0009,1.001,1.006,1.0061,1.0062,0.994,0.9935,0.993,0.9926,0.9983,0.9989,0.9995,0,0,0,0,0,0,0,0,0,0,0,0,0,0.9878,0.9809,1.0008,0.9955,0.995,1.006,1.0061,1.0062,0.9941,0.9935,0.9929,0.9924,0.9981,0.9988,0.9996,1.0161,0,0,1.002,1.0023,0,0,0,0,0,0,0,0,0.9874,0.9886,0.9962,0.9959,0.9954,0.9987,1.0009,1.0095,0.9942,0.9945,0.9928,0.9921,0.999,0.9997,1.002,1.0164,1.0166,1.002,1.0025,1.0028,1.0031,0,0,0,0,0,0,0,0.9869,0.9883,1.0029,0.9963,0.9958,0.9928,0.9932,1.0025,1.0,0.9944,0.9935,0.9943,0.9987,1.0013,1.002,1.0167,1.002,1.0027,1.0032,1.0035,1.0443,1.0449,0,0,0,0,0,0,0.987,0.9879,1.0027,1.003,0.9899,0.9937,0.9941,0.9983,0.9999,0.9995,0.9948,0.9937,1.0002,1.0011,1.0022,1.0212,1.0028,1.0036,1.004,1.0437,1.0444,1.0451,0,0,0,0,0,0,0.9866,0.9885,1.0025,0.9952,0.9968,0.9946,0.9994,0.9987,1.0012,1.0001,0.9996,0.9978,0.9998,1.0011,1.0126,1.0212,1.0039,1.0046,1.043,1.0439,1.0448,1.0597,0,0,0,0,0,0,0.9861,0.9884,0.9947,0.9955,0.9972,1.0129,0.9999,0.9992,1.0025,1.0011,1.0029,1.0026,0.9994,1.0115,1.0133,1.022,1.0052,1.0422,1.0434,1.0445,1.0584,1.061,1.0632,0,0,0,0,0,0.9854,0.9989,0.9951,0.9969,1.005,1.0134,1.0144,1.0104,1.0033,1.0095,1.0087,1.0025,1.02,1.0128,1.0148,1.0238,1.0416,1.043,1.0444,1.0573,1.0605,1.0631,0,0,0,0,0,0,0.9994,0.9989,0.9947,1.0087,1.0112,1.0113,1.0191,1.014,1.0186,1.0172,1.0121,1.0126,1.025,1.0255,1.0175,1.0395,1.0296,1.0315,1.0387,1.0417,1.0441,1.0436,1.0058,0,0,0,0,0,1.0041,1.0109,1.0101,1.0226,1.024,1.0214,1.0249,1.0215,1.0239,1.0249,1.025,1.0276,1.0336,1.0377,1.0433,1.0584,1.0584,1.0656,1.068,1.07,1.0716,1.0792,1.0823,1.0497,1.0497,1.0497,0,0,1.0139,1.0144,1.0191,1.0254,1.0269,1.0339,1.0223,1.0305,1.0356,1.0262,1.0369,1.0371,1.0396,1.0529,1.0588,1.0538,1.0806,1.0717,1.0733,1.0739,1.081,1.0841,1.0868,1.0507,1.0505,1.0503,0,0,1.0353,1.0366,1.0468,1.0485,1.0508,1.0488,1.0513,1.0522,1.0518,1.0625,1.0554,1.0615,1.0721,1.0741,1.0765,1.0982,1.0925,1.1001,1.1127,1.1202,1.1228,1.125,1.1324,1.1352,1.1018,1.1018,1.1019,0,1.0473,1.0576,1.0529,1.0613,1.0641,1.0557,1.0659,1.0678,1.0719,1.0741,1.0684,1.0811,1.0823,1.0957,1.1009,1.1033,1.1058,1.0999,1.1228,1.125,1.127,1.134,1.1368,1.1027,1.1026,1.1025,1.1024,0,1.0719,1.0792,1.0873,1.0911,1.0948,1.1043,1.1008,1.1052,1.1015,1.1001,1.1109,1.1119,1.1173,1.1202,1.1169,1.1331,1.1298,1.1236,1.1134,1.131,1.1375,1.1402,1.104,1.1037,1.1034,1.1032,0,0,1.1025,1.1032,1.1063,1.1077,1.1094,1.1149,1.1238,1.1288,1.1325,1.1356,1.1427,1.1517,1.1457,1.1484,1.1451,1.1517,1.1684,1.1445,1.1445,1.1487,1.1859,1.1905,1.1937,1.1647,1.1652,1.1656,1.1856,0,1.1234,1.1384,1.1342,1.1493,1.1557,1.1476,1.1552,1.1571,1.156,1.1613,1.1602,1.1664,1.1583,1.1598,1.166,1.1651,1.1758,1.1636,1.1711,1.1715,1.1705,1.1971,1.2021,1.2209,1.1882,1.1886,1.1889,0,1.1499,1.1535,1.1691,1.1693,1.1718,1.1788,1.1828,1.1881,1.1899,1.1886,1.1915,1.1867,1.1953,1.1852,1.1968,1.1886,1.1914,1.1914,1.192,1.1924,1.1811,1.198,1.2269,1.2296,1.1929,1.1926,1.1923,0,1.1701,1.179,1.1893,1.1909,1.1915,1.1965,1.197,1.1982,1.2014,1.205,1.2069,1.2115,1.214,1.2177,1.2142,1.2072,1.2263,1.216,1.2253,1.2254,1.2296,1.2293,1.2591,1.2319,1.2318,1.2318,1.2317,0,1.1938,1.2036,1.1984,1.2048,1.2154,1.2104,1.2211,1.2207,1.2218,1.2278,1.2212,1.2271,1.2222,1.2276,1.225,1.2348,1.2361,1.2352,1.2343,1.2356,1.2357,1.2373,1.2358,1.2325,1.2323,1.2322,1.2321,0,1.2182,1.2152,1.2258,1.2254,1.2255,1.2333,1.2329,1.2387,1.237,1.2447,1.2463,1.2437,1.2496,1.2465,1.2528,1.251,1.2636,1.2611,1.2629,1.2621,1.2715,1.2706,1.3032,1.307,1.2776,1.2779,1.2781,0,1.2334,1.2406,1.2408,1.2443,1.2451,1.2509,1.2539,1.2493,1.2527,1.2551,1.2606,1.2659,1.2699,1.2798,1.2784,1.2831,1.2805,1.2916,1.2812,1.2821,1.2803,1.2798,1.2803,1.2937,1.294,1.2943,1.2945,0,1.2605,1.2585,1.2631,1.2671,1.2708,1.2738,1.2762,1.2795,1.2748,1.279,1.2848,1.2879,1.2941,1.2994,1.3033,1.3038,1.2984,1.2978,1.3001,1.3015,1.302,1.3015,1.2683,1.297,1.2968,1.2966,1.2965,1.2964,1.2806,1.2865,1.2874,1.2926,1.2938,1.2961,1.3014,1.3002,1.3049,1.3094,1.3064,1.3132,1.3145,1.3192,1.3203,1.3256,1.3211,1.3247,1.3255,1.3263,1.3274,1.3014,1.3263,1.3262,1.3262,1.3261,1.3261,0,1.3071,1.3071,1.312,1.3153,1.3194,1.3137,1.316,1.3197,1.3258,1.3274,1.3313,1.3378,1.3428,1.3418,1.3462,1.3506,1.3482,1.3519,1.3514,1.3516,1.3313,1.3287,1.3537,1.3537,1.3537,1.3537,1.3537,1.3537,1.3213,1.3308,1.3289,1.3389,1.3389,1.3453,1.3471,1.3491,1.3502,1.3578,1.3618,1.361,1.3614,1.3658,1.3701,1.3696,1.3715,1.3761,1.3747,1.3558,1.353,1.3504,1.3479,1.3766,1.3766,1.3944,1.3946,1.3947]}]]